Date,TemperatureHighF,TemperatureAvgF,TemperatureLowF,DewpointHighF,DewpointAvgF,DewpointLowF,HumidityHigh,HumidityAvg,HumidityLow,PressureMaxIn,PressureMinIn,WindSpeedMaxMPH,WindSpeedAvgMPH,GustSpeedMaxMPH,PrecipitationSumIn
2013-9-1,99.4,85.5,74.3,75.0,70.5,66.0,83,63,35,30.68,30.54,11,3,0,0.00
2013-9-2,100.4,86.6,74.8,76.0,70.6,66.0,83,62,34,30.73,30.55,11,2,0,0.00
2013-9-3,100.0,85.2,78.3,74.0,71.2,68.0,77,64,37,30.73,30.60,7,2,0,0.00
2013-9-4,96.4,83.7,75.6,76.0,71.9,69.0,82,69,46,30.79,30.67,10,1,0,0.00
2013-9-5,97.5,82.4,72.6,75.0,70.3,66.0,81,69,42,30.85,30.72,9,1,0,0.03
2013-9-6,97.3,83.2,72.3,75.0,70.7,66.0,81,68,41,30.84,30.70,7,1,0,0.00
2013-9-7,91.5,78.6,72.2,75.0,69.2,65.0,80,73,55,30.79,30.69,6,1,0,0.03
2013-9-8,93.1,80.2,71.9,74.0,69.4,65.0,79,70,51,30.75,30.63,9,2,0,0.02
2013-9-9,93.7,79.5,71.4,73.0,68.2,64.0,77,69,48,30.76,30.67,11,2,0,0.00
2013-9-10,93.5,80.7,73.0,73.0,68.8,64.0,75,68,38,30.83,30.74,11,2,0,0.00
2013-9-11,95.9,83.1,73.4,74.0,68.1,65.0,75,62,39,30.86,30.73,8,2,0,0.00
2013-9-12,95.5,82.7,70.7,74.0,66.8,62.0,74,61,36,30.81,30.64,9,1,0,0.00
2013-9-13,98.3,83.0,68.4,71.0,65.5,60.0,74,58,36,30.71,30.54,7,1,0,0.00
2013-9-14,95.6,84.0,73.7,72.0,69.1,65.0,74,62,44,30.68,30.57,9,2,0,0.00
2013-9-15,95.1,83.2,74.4,74.0,69.7,65.0,74,65,44,30.76,30.66,9,2,0,0.00
2013-9-16,94.3,82.7,74.7,74.0,70.1,66.0,74,67,45,30.81,30.69,11,2,0,0.00
2013-9-17,97.0,83.9,73.4,75.0,68.7,64.0,74,62,40,30.81,30.67,11,2,0,0.00
2013-9-18,97.6,83.4,71.9,75.0,68.9,63.0,74,63,40,30.76,30.62,10,2,0,0.00
2013-9-19,92.0,81.2,76.2,75.0,70.4,67.0,74,70,57,30.71,30.59,10,2,0,0.11
2013-9-20,81.1,77.6,73.1,70.0,66.9,62.0,72,70,68,30.64,30.50,12,2,0,2.31
2013-9-21,81.7,74.5,70.4,68.0,62.8,59.0,70,67,61,30.65,30.55,11,3,0,0.14
2013-9-22,84.5,73.2,59.5,60.0,55.8,50.0,71,56,35,30.66,30.52,9,2,0,0.00
2013-9-23,88.1,76.9,67.9,70.0,63.0,56.0,71,62,55,30.60,30.50,7,1,0,0.00
2013-9-24,92.9,79.7,69.6,72.0,63.9,59.0,72,60,37,30.64,30.54,10,1,0,0.00
2013-9-25,94.2,77.7,63.4,67.0,59.8,53.0,71,57,29,30.65,30.53,8,1,0,0.00
2013-9-26,92.4,79.1,69.2,71.0,63.5,58.0,72,60,37,30.68,30.58,9,2,0,0.00
2013-9-27,88.4,79.5,71.1,76.0,68.7,61.0,72,69,64,30.70,30.61,10,2,0,0.00
2013-9-28,87.9,80.5,76.1,76.0,68.7,64.0,70,67,62,30.73,30.62,8,2,0,0.21
2013-9-29,79.8,76.0,72.1,68.0,62.4,58.0,68,63,61,30.77,30.66,9,1,0,3.60
2013-9-30,87.5,77.9,72.0,72.0,63.9,58.0,67,62,57,30.70,30.56,8,0,0,0.00